GW4412 Weather Reports


time (UTC)temp
C
wind
direction
speed
KPH
gust
KPH
rain 1hr
cm
rain 24hr
cm
rain mn
cm
humidity
%
barometer
mb
20260507235012 16 234 0.0 0.0 0.00 0.00 0.00 71 1018.0
20260507234513 16 234 0.0 0.0 0.00 0.00 0.00 71 1018.0
20260507234013 16 234 0.0 0.0 0.00 0.00 0.00 70 1018.0
20260507233513 17 234 0.0 0.0 0.00 0.00 0.00 70 1018.0
20260507233013 17 234 0.0 0.0 0.00 0.00 0.00 70 1018.0
20260507232513 17 234 0.0 0.0 0.00 0.00 0.00 70 1018.0
20260507232013 17 234 0.0 0.0 0.00 0.00 0.00 70 1018.0
20260507231512 17 234 0.0 0.0 0.00 0.00 0.00 70 1018.0
20260507231012 17 234 0.0 0.0 0.00 0.00 0.00 69 1018.0
20260507230513 17 234 0.0 0.0 0.00 0.00 0.00 69 1019.0
20260507230015 17 234 0.0 0.0 0.00 0.00 0.00 68 1019.0
20260507225512 16 234 0.0 0.0 0.00 0.00 0.00 66 1018.0
20260507225013 16 227 0.0 0.0 0.00 0.00 0.00 66 1018.0
20260507224512 17 174 0.0 0.0 0.00 0.00 0.00 67 1018.0
20260507224012 17 174 0.0 0.0 0.00 0.00 0.00 67 1018.0
20260507223512 17 174 0.0 0.0 0.00 0.00 0.00 67 1018.0
20260507223013 17 174 0.0 0.0 0.00 0.00 0.00 67 1018.0
20260507222512 17 174 0.0 0.0 0.00 0.00 0.00 66 1018.0
20260507222013 17 174 0.0 0.0 0.00 0.00 0.00 65 1018.0
20260507221512 17 174 0.0 0.0 0.00 0.00 0.00 66 1018.0
20260507221012 17 174 0.0 0.0 0.00 0.00 0.00 66 1019.0
20260507220513 17 174 0.0 0.0 0.00 0.00 0.00 66 1019.0
20260507220013 17 174 0.0 0.0 0.00 0.00 0.00 67 1018.0
20260507215512 17 174 0.0 0.0 0.00 0.00 0.00 67 1018.0
20260507215012 17 174 0.0 0.0 0.00 0.00 0.00 65 1018.0
20260507214512 17 174 0.0 0.0 0.00 0.00 0.00 65 1019.0
20260507214013 17 174 0.0 0.0 0.00 0.00 0.00 64 1019.0
20260507213512 17 174 0.0 0.0 0.00 0.00 0.00 63 1019.0
20260507213012 17 314 0.0 0.0 0.00 0.00 0.00 62 1019.0
20260507212512 17 314 0.0 0.0 0.00 0.00 0.00 60 1019.0
20260507212012 17 314 0.0 0.0 0.00 0.00 0.00 61 1019.0
20260507211512 17 314 0.0 0.0 0.00 0.00 0.00 62 1019.0
20260507211013 17 314 0.0 0.0 0.00 0.00 0.00 64 1019.0
20260507210512 17 314 0.0 0.0 0.00 0.00 0.00 63 1019.0
20260507210012 18 314 0.0 0.0 0.00 0.00 0.00 62 1019.0
20260507205513 18 316 0.0 0.0 0.00 0.00 0.00 59 1019.0
20260507205012 18 316 0.0 0.0 0.00 0.00 0.00 57 1019.0
20260507204512 18 321 0.0 0.0 0.00 0.00 0.00 56 1019.0
20260507204012 18 321 0.0 0.0 0.00 0.00 0.00 56 1019.0
20260507203512 18 321 0.0 0.0 0.00 0.00 0.00 55 1019.0
20260507203012 18 321 0.0 0.0 0.00 0.00 0.00 56 1019.0
20260507202513 18 321 0.0 0.0 0.00 0.00 0.00 56 1019.0
20260507202012 18 321 0.0 0.0 0.00 0.00 0.00 55 1019.0
20260507201512 19 321 0.0 0.0 0.00 0.00 0.00 54 1019.0
20260507201014 19 321 0.0 0.0 0.00 0.00 0.00 54 1019.0
20260507200512 18 288 0.0 0.0 0.00 0.00 0.00 53 1019.0
20260507200012 18 341 0.0 0.0 0.00 0.00 0.00 54 1019.0
20260507195512 18 348 0.0 0.0 0.00 0.00 0.00 58 1019.0
20260507195012 18 348 0.0 0.0 0.00 0.00 0.00 61 1019.0
20260507194512 18 348 0.0 0.0 0.00 0.00 0.00 61 1019.0
20260507194012 18 348 0.0 0.0 0.00 0.00 0.00 62 1019.0
20260507193512 18 348 0.0 0.0 0.00 0.00 0.00 61 1019.0
20260507193012 18 348 0.0 0.0 0.00 0.00 0.00 60 1018.0
20260507192512 18 348 0.0 0.0 0.00 0.00 0.00 58 1018.0
20260507192013 18 348 0.0 0.0 0.00 0.00 0.00 59 1019.0
20260507191513 18 348 0.0 0.0 0.00 0.00 0.00 59 1018.0
20260507191012 18 348 0.0 0.0 0.00 0.00 0.00 60 1018.0
20260507190512 18 348 0.0 0.0 0.00 0.00 0.00 61 1018.0
20260507190013 18 348 0.0 0.0 0.00 0.00 0.00 61 1018.0
20260507185513 18 348 0.0 0.0 0.00 0.00 0.00 61 1018.0
20260507185012 18 348 0.0 0.0 0.00 0.00 0.00 61 1018.0
20260507184512 19 348 0.0 0.0 0.00 0.00 0.00 60 1018.0
20260507184013 19 347 3.2 3.2 0.00 0.00 0.00 60 1018.0
20260507183512 19 347 0.0 0.0 0.00 0.00 0.00 60 1018.0
20260507183012 18 6 0.0 0.0 0.00 0.00 0.00 61 1018.0
20260507182512 18 189 0.0 0.0 0.00 0.00 0.00 63 1018.0
20260507182012 18 189 0.0 0.0 0.00 0.00 0.00 62 1018.0
20260507181512 19 186 3.2 3.2 0.00 0.00 0.00 60 1018.0
20260507181013 20 251 1.6 1.6 0.00 0.00 0.00 58 1018.0
20260507180513 20 251 0.0 0.0 0.00 0.00 0.00 57 1018.0
20260507180012 20 336 0.0 0.0 0.00 0.00 0.00 54 1018.0
20260507175512 20 336 0.0 0.0 0.00 0.00 0.00 54 1018.0
20260507175013 20 349 0.0 0.0 0.00 0.00 0.00 54 1018.0
20260507174512 21 345 0.0 0.0 0.00 0.00 0.00 54 1018.0
20260507174013 21 347 0.0 0.0 0.00 0.00 0.00 54 1018.0
20260507173512 21 350 3.2 3.2 0.00 0.00 0.00 54 1018.0
20260507173012 21 293 0.0 0.0 0.00 0.00 0.00 53 1018.0
20260507172512 21 293 0.0 0.0 0.00 0.00 0.00 53 1018.0
20260507172013 21 284 0.0 0.0 0.00 0.00 0.00 53 1018.0
20260507171512 21 284 0.0 0.0 0.00 0.00 0.00 52 1018.0
20260507171014 21 284 0.0 0.0 0.00 0.00 0.00 52 1018.0
20260507170512 21 284 0.0 0.0 0.00 0.00 0.00 51 1018.0
20260507170012 21 284 0.0 0.0 0.00 0.00 0.00 51 1018.0
20260507165512 22 284 0.0 0.0 0.00 0.00 0.00 50 1018.0
20260507165013 22 276 1.6 1.6 0.00 0.00 0.00 48 1018.0
20260507164512 22 276 0.0 0.0 0.00 0.00 0.00 47 1018.0
20260507164012 22 323 3.2 3.2 0.00 0.00 0.00 47 1018.0
20260507163513 22 265 1.6 1.6 0.00 0.00 0.00 46 1018.0
20260507163013 22 267 0.0 0.0 0.00 0.00 0.00 46 1018.0
20260507162512 22 273 0.0 0.0 0.00 0.00 0.00 45 1018.0
20260507162014 22 275 4.8 4.8 0.00 0.00 0.00 45 1018.0
20260507161513 22 288 9.7 9.7 0.00 0.00 0.00 45 1018.0
20260507161013 22 279 3.2 3.2 0.00 0.00 0.00 45 1018.0
20260507160513 23 273 4.8 4.8 0.00 0.00 0.00 44 1018.0
20260507160013 23 277 6.4 6.4 0.00 0.00 0.00 45 1018.0
20260507155513 23 300 4.8 4.8 0.00 0.00 0.00 45 1018.0
20260507155012 23 251 0.0 0.0 0.00 0.00 0.00 45 1017.0
20260507154512 23 168 0.0 0.0 0.00 0.00 0.00 45 1017.0
20260507154012 23 174 1.6 1.6 0.00 0.00 0.00 45 1017.0
20260507153512 23 273 0.0 0.0 0.00 0.00 0.00 44 1017.0
20260507153013 23 274 1.6 1.6 0.00 0.00 0.00 44 1017.0
20260507152512 23 266 0.0 0.0 0.00 0.00 0.00 43 1017.0
20260507152012 23 263 4.8 4.8 0.00 0.00 0.00 44 1017.0
20260507151512 23 169 0.0 0.0 0.00 0.00 0.00 44 1017.0
20260507151014 23 180 8.0 8.0 0.00 0.00 0.00 44 1018.0
20260507150513 23 198 8.0 9.7 0.00 0.00 0.00 43 1018.0
20260507150014 23 212 0.0 0.0 0.00 0.00 0.00 42 1018.0
20260507145513 23 257 0.0 0.0 0.00 0.00 0.00 42 1018.0
20260507145015 23 144 0.0 0.0 0.00 0.00 0.00 42 1018.0
20260507144513 24 186 1.6 1.6 0.00 0.00 0.00 41 1018.0
20260507144013 23 191 6.4 6.4 0.00 0.00 0.00 42 1018.0
20260507143513 23 196 6.4 6.4 0.00 0.00 0.00 41 1018.0
20260507143013 23 183 6.4 8.0 0.00 0.00 0.00 42 1018.0
20260507142512 23 220 4.8 4.8 0.00 0.00 0.00 41 1018.0
20260507142012 23 166 3.2 3.2 0.00 0.00 0.00 40 1018.0
20260507141513 24 185 8.0 9.7 0.00 0.00 0.00 39 1018.0
20260507141012 24 154 4.8 4.8 0.00 0.00 0.00 40 1017.0
20260507140513 23 160 3.2 3.2 0.00 0.00 0.00 41 1018.0
20260507140013 25 276 3.2 3.2 0.00 0.00 0.00 38 1018.0
20260507135513 24 210 1.6 1.6 0.00 0.00 0.00 39 1018.0
20260507135012 24 139 0.0 0.0 0.00 0.00 0.00 39 1018.0
20260507134512 24 306 1.6 1.6 0.00 0.00 0.00 39 1018.0
20260507134012 24 174 6.4 6.4 0.00 0.00 0.00 38 1017.0
20260507133513 24 180 8.0 9.7 0.00 0.00 0.00 37 1018.0
20260507133013 24 179 9.7 9.7 0.00 0.00 0.00 37 1017.0
20260507132512 24 180 6.4 6.4 0.00 0.00 0.00 37 1017.0
20260507132012 25 203 8.0 8.0 0.00 0.00 0.00 36 1017.0
20260507131513 25 180 14.5 14.5 0.00 0.00 0.00 36 1017.0
20260507131013 25 186 6.4 6.4 0.00 0.00 0.00 36 1017.0
20260507130512 25 186 9.7 11.3 0.00 0.00 0.00 35 1017.0
20260507130013 25 192 9.7 9.7 0.00 0.00 0.00 36 1017.0
20260507125513 25 191 12.9 14.5 0.00 0.00 0.00 35 1017.0
20260507125012 25 180 6.4 6.4 0.00 0.00 0.00 35 1017.0
20260507124513 25 211 8.0 9.7 0.00 0.00 0.00 34 1018.0
20260507124012 25 192 8.0 8.0 0.00 0.00 0.00 35 1018.0
20260507123513 25 184 12.9 12.9 0.00 0.00 0.00 33 1018.0
20260507123012 25 212 3.2 3.2 0.00 0.00 0.00 35 1018.0
20260507122512 25 174 1.6 1.6 0.00 0.00 0.00 35 1018.0
20260507122013 25 177 4.8 4.8 0.00 0.00 0.00 35 1018.0
20260507121512 25 191 6.4 6.4 0.00 0.00 0.00 36 1018.0
20260507121012 25 270 0.0 0.0 0.00 0.00 0.00 34 1018.0
20260507120512 26 174 0.0 0.0 0.00 0.00 0.00 34 1018.0
20260507120013 26 172 0.0 0.0 0.00 0.00 0.00 34 1018.0
20260507115512 25 168 6.4 6.4 0.00 0.00 0.00 35 1018.0
20260507115013 25 174 3.2 3.2 0.00 0.00 0.00 36 1018.0
20260507114512 25 197 1.6 1.6 0.00 0.00 0.00 34 1018.0
20260507114012 25 264 4.8 4.8 0.00 0.00 0.00 36 1018.0
20260507113513 24 276 1.6 1.6 0.00 0.00 0.00 38 1018.0
20260507113013 24 198 3.2 3.2 0.00 0.00 0.00 39 1018.0
20260507112513 24 259 4.8 4.8 0.00 0.00 0.00 39 1018.0
20260507112012 24 276 0.0 0.0 0.00 0.00 0.00 41 1018.0
20260507111512 24 212 3.2 3.2 0.00 0.00 0.00 40 1018.0
20260507111012 24 257 3.2 3.2 0.00 0.00 0.00 41 1018.0
20260507110513 25 254 4.8 4.8 0.00 0.00 0.00 38 1018.0
20260507110013 25 128 0.0 0.0 0.00 0.00 0.00 35 1018.0
20260507105512 25 168 8.0 8.0 0.00 0.00 0.00 35 1018.0
20260507105012 25 192 9.7 11.3 0.00 0.00 0.00 34 1018.0
20260507104514 25 166 6.4 8.0 0.00 0.00 0.00 35 1018.0
20260507104014 25 166 6.4 6.4 0.00 0.00 0.00 34 1018.0
20260507103512 25 198 3.2 3.2 0.00 0.00 0.00 35 1018.0
20260507103014 25 192 3.2 3.2 0.00 0.00 0.00 34 1018.0
20260507102513 25 192 8.0 8.0 0.00 0.00 0.00 34 1018.0
20260507102013 25 197 6.4 6.4 0.00 0.00 0.00 34 1018.0
20260507101514 25 179 6.4 8.0 0.00 0.00 0.00 34 1018.0
20260507101012 25 246 4.8 6.4 0.00 0.00 0.00 33 1018.0
20260507100512 25 241 4.8 4.8 0.00 0.00 0.00 34 1018.0
20260507100012 25 336 0.0 0.0 0.00 0.00 0.00 36 1018.0
20260507095512 25 184 4.8 4.8 0.00 0.00 0.00 34 1018.0
20260507095012 25 162 8.0 9.7 0.00 0.00 0.00 35 1018.0
20260507094513 25 203 6.4 8.0 0.00 0.00 0.00 35 1018.0
20260507094012 24 264 3.2 3.2 0.00 0.00 0.00 35 1018.0
20260507093512 25 270 1.6 1.6 0.00 0.00 0.00 34 1018.0
20260507093012 25 197 4.8 4.8 0.00 0.00 0.00 34 1018.0
20260507092514 25 186 3.2 3.2 0.00 0.00 0.00 34 1018.0
20260507092012 24 358 3.2 3.2 0.00 0.00 0.00 35 1018.0
20260507091513 25 196 3.2 3.2 0.00 0.00 0.00 35 1018.0
20260507091013 24 150 0.0 0.0 0.00 0.00 0.00 36 1018.0
20260507090513 24 288 0.0 0.0 0.00 0.00 0.00 38 1018.0
20260507090012 24 300 0.0 0.0 0.00 0.00 0.00 35 1018.0
20260507085513 25 7 4.8 4.8 0.00 0.00 0.00 36 1018.0
20260507085013 25 269 0.0 0.0 0.00 0.00 0.00 39 1018.0
20260507084513 24 293 0.0 0.0 0.00 0.00 0.00 41 1018.0
20260507084012 23 76 0.0 0.0 0.00 0.00 0.00 40 1018.0
20260507083512 23 174 0.0 0.0 0.00 0.00 0.00 42 1018.0
20260507083014 23 272 0.0 0.0 0.00 0.00 0.00 45 1018.0
20260507082512 23 308 3.2 3.2 0.00 0.00 0.00 44 1018.0
20260507082012 22 168 1.6 1.6 0.00 0.00 0.00 43 1018.0
20260507081512 22 152 0.0 0.0 0.00 0.00 0.00 44 1018.0
20260507081014 22 173 4.8 4.8 0.00 0.00 0.00 45 1018.0
20260507080513 22 185 8.0 9.7 0.00 0.00 0.00 46 1018.0
20260507080012 22 288 4.8 4.8 0.00 0.00 0.00 47 1018.0
20260507075512 22 174 0.0 0.0 0.00 0.00 0.00 46 1018.0
20260507075014 22 242 1.6 1.6 0.00 0.00 0.00 46 1018.0
20260507074512 21 154 0.0 0.0 0.00 0.00 0.00 46 1018.0
20260507074012 21 168 0.0 0.0 0.00 0.00 0.00 47 1018.0
20260507073512 21 330 1.6 1.6 0.00 0.00 0.00 47 1018.0
20260507073013 21 186 4.8 4.8 0.00 0.00 0.00 48 1018.0
20260507072513 21 177 4.8 4.8 0.00 0.00 0.00 50 1018.0
20260507072012 21 166 0.0 0.0 0.00 0.00 0.00 46 1018.0
20260507071512 21 300 0.0 0.0 0.00 0.00 0.00 49 1018.0
20260507071012 21 291 0.0 0.0 0.00 0.00 0.00 50 1018.0
20260507070512 20 256 0.0 0.0 0.00 0.00 0.00 50 1018.0
20260507070013 20 248 0.0 0.0 0.00 0.00 0.00 51 1018.0
20260507065512 20 173 0.0 0.0 0.00 0.00 0.00 53 1018.0
20260507065012 20 210 0.0 0.0 0.00 0.00 0.00 56 1018.0
20260507064512 20 301 0.0 0.0 0.00 0.00 0.00 54 1018.0
20260507064012 20 221 0.0 0.0 0.00 0.00 0.00 54 1018.0
20260507063512 20 288 0.0 0.0 0.00 0.00 0.00 53 1018.0
20260507063012 20 248 0.0 0.0 0.00 0.00 0.00 53 1018.0
20260507062513 20 276 0.0 0.0 0.00 0.00 0.00 52 1018.0
20260507062013 20 227 0.0 0.0 0.00 0.00 0.00 56 1018.0
20260507061514 19 271 0.0 0.0 0.00 0.00 0.00 56 1018.0
20260507061012 18 152 0.0 0.0 0.00 0.00 0.00 55 1018.0
20260507060512 19 248 0.0 0.0 0.00 0.00 0.00 57 1018.0
20260507060013 18 248 0.0 0.0 0.00 0.00 0.00 61 1018.0
20260507055513 19 174 0.0 0.0 0.00 0.00 0.00 60 1018.0
20260507055012 18 174 0.0 0.0 0.00 0.00 0.00 60 1018.0
20260507054512 18 174 0.0 0.0 0.00 0.00 0.00 64 1018.0
20260507054012 17 174 0.0 0.0 0.00 0.00 0.00 67 1018.0
20260507053513 17 174 0.0 0.0 0.00 0.00 0.00 67 1018.0
20260507053012 16 174 0.0 0.0 0.00 0.00 0.00 69 1018.0
20260507052513 15 174 0.0 0.0 0.00 0.00 0.00 74 1018.0
20260507052012 14 174 0.0 0.0 0.00 0.00 0.00 76 1018.0
20260507051513 14 174 0.0 0.0 0.00 0.00 0.00 76 1018.0
20260507051012 13 174 0.0 0.0 0.00 0.00 0.00 77 1018.0
20260507050513 13 174 0.0 0.0 0.00 0.00 0.00 79 1018.0
20260507050012 13 174 0.0 0.0 0.00 0.00 0.00 80 1018.0
20260507045512 13 174 0.0 0.0 0.00 0.00 0.00 81 1018.0
20260507045012 12 174 0.0 0.0 0.00 0.00 0.00 82 1017.0
20260507044512 12 174 0.0 0.0 0.00 0.00 0.00 83 1017.0
20260507044012 12 174 0.0 0.0 0.00 0.00 0.00 83 1018.0
20260507043512 12 174 0.0 0.0 0.00 0.00 0.00 82 1018.0
20260507043013 13 357 0.0 0.0 0.00 0.00 0.00 80 1018.0
20260507042513 13 357 0.0 0.0 0.00 0.00 0.00 80 1017.0
20260507042013 13 357 0.0 0.0 0.00 0.00 0.00 80 1018.0
20260507041512 12 357 0.0 0.0 0.00 0.00 0.00 80 1018.0
20260507041012 12 357 0.0 0.0 0.00 0.00 0.00 82 1017.0
20260507040512 12 357 0.0 0.0 0.00 0.00 0.00 82 1017.0
20260507040013 12 357 0.0 0.0 0.00 0.00 0.00 84 1017.0
20260507035512 11 357 0.0 0.0 0.00 0.00 0.00 84 1017.0
20260507035012 12 357 0.0 0.0 0.00 0.00 0.00 84 1017.0
20260507034512 12 357 0.0 0.0 0.00 0.00 0.00 83 1017.0
20260507034012 12 357 0.0 0.0 0.00 0.00 0.00 83 1018.0
20260507033512 11 357 0.0 0.0 0.00 0.00 0.00 83 1018.0
20260507033012 12 357 0.0 0.0 0.00 0.00 0.00 83 1018.0
20260507032512 11 357 0.0 0.0 0.00 0.00 0.00 84 1017.0
20260507032012 11 357 0.0 0.0 0.00 0.00 0.00 84 1018.0
20260507031512 11 357 0.0 0.0 0.00 0.00 0.00 84 1018.0
20260507031015 11 357 0.0 0.0 0.00 0.00 0.00 84 1017.0
20260507030512 11 357 0.0 0.0 0.00 0.00 0.00 83 1017.0
20260507030012 12 357 0.0 0.0 0.00 0.00 0.00 83 1017.0
20260507025512 11 357 0.0 0.0 0.00 0.00 0.00 83 1017.0
20260507025012 11 357 0.0 0.0 0.00 0.00 0.00 84 1017.0
20260507024512 11 357 0.0 0.0 0.00 0.00 0.00 84 1017.0
20260507024012 11 357 0.0 0.0 0.00 0.00 0.00 83 1017.0
20260507023512 11 357 0.0 0.0 0.00 0.00 0.00 83 1017.0
20260507023013 12 357 0.0 0.0 0.00 0.00 0.00 82 1017.0
20260507022512 12 357 0.0 0.0 0.00 0.00 0.00 81 1017.0
20260507022013 12 357 0.0 0.0 0.00 0.00 0.00 80 1017.0
20260507021512 12 357 0.0 0.0 0.00 0.00 0.00 79 1017.0
20260507021012 12 357 0.0 0.0 0.00 0.00 0.00 79 1017.0
20260507020513 12 357 0.0 0.0 0.00 0.00 0.00 80 1017.0
20260507020012 12 357 0.0 0.0 0.00 0.00 0.00 79 1017.0
20260507015512 12 357 0.0 0.0 0.00 0.00 0.00 78 1017.0
20260507015013 12 357 0.0 0.0 0.00 0.00 0.00 79 1017.0
20260507014513 13 357 0.0 0.0 0.00 0.00 0.00 78 1017.0
20260507014012 13 357 0.0 0.0 0.00 0.00 0.00 78 1017.0
20260507013513 13 357 0.0 0.0 0.00 0.00 0.00 78 1017.0
20260507013012 13 357 0.0 0.0 0.00 0.00 0.00 78 1017.0
20260507012512 13 357 0.0 0.0 0.00 0.00 0.00 79 1017.0
20260507012013 12 357 0.0 0.0 0.00 0.00 0.00 79 1017.0
20260507011512 12 357 0.0 0.0 0.00 0.00 0.00 80 1017.0
20260507011012 12 357 0.0 0.0 0.00 0.00 0.00 81 1017.0
20260507010512 12 357 0.0 0.0 0.00 0.00 0.00 81 1017.0
20260507010012 12 357 0.0 0.0 0.00 0.00 0.00 81 1017.0
20260507005512 12 357 0.0 0.0 0.00 0.00 0.00 80 1017.0
20260507005012 12 357 0.0 0.0 0.00 0.00 0.00 80 1017.0
20260507004512 12 357 0.0 0.0 0.00 0.00 0.00 81 1017.0
20260507004012 12 344 0.0 0.0 0.00 0.00 0.00 80 1017.0
20260507003512 13 344 0.0 0.0 0.00 0.00 0.00 77 1017.0
20260507003012 13 344 0.0 0.0 0.00 0.00 0.00 76 1017.0
20260507002512 13 344 0.0 0.0 0.00 0.00 0.00 75 1017.0
20260507002013 13 343 0.0 0.0 0.00 0.00 0.00 73 1017.0
20260507001512 12 343 0.0 0.0 0.00 0.00 0.00 77 1017.0
20260507001012 12 344 0.0 0.0 0.00 0.00 0.00 80 1017.0
20260507000515 12 344 0.0 0.0 0.00 0.00 0.00 79 1017.0
20260507000012 13 344 0.0 0.0 0.00 0.00 0.00 77 1017.0
20260506235512 13 343 0.0 0.0 0.00 0.00 0.00 75 1017.0